LEGION 1

Last updated on Wed Mar 04 2026 00:02:33 GMT+0000 (Coordinated Universal Time)

1 59625U 24081A 26062.60271844 .00006141 00000+0 31016-3 0 9995 2 59625 97.5086 141.5534 0005576 39.8868 320.2775 15.17438596101537
UTC large
Height (km)
Speed (km/s)
/
Latitude / Longitude
Inclination (degrees)
Orbital Period (minutes)
Azimuth
Elevation
Range (km)
Doppler Factor

Next 0 passes for location: London (51.5072 / 0.1276)

Sorry there are no passes over London.